When you browse on this site, cookies collect data to enhance your experience and personalize the content and advertising you see.
Visit our Privacy Policy to learn more. By continuing to use the site, you agree to this use of cookies and data.
  • In Lithuania
  • List of Countries
  • For 7 days
  • Water Temperature
  • Satellite Maps
  • Weather Map
  • Weather Widgets
  • user-avatar
    Login

    Hourly Weather Guanare

    Today, 20 November, Tuesday

    Time Temperature Precipitation Wind Pressure Humidity
    00:00 +25°C° 0.1 mm 1 mps 741 mmHg 81%
    01:00 +25°C° 0.1 mm 1 mps 741 mmHg 80%
    02:00 +25°C° 0.1 mm 1 mps 741 mmHg 81%
    03:00 +25°C° 0.1 mm 1 mps 741 mmHg 82%
    04:00 +24°C° 0.1 mm 1 mps 741 mmHg 83%
    05:00 +25°C° 0 mm 1 mps 741 mmHg 82%
    06:00 +26°C° 0 mm 1 mps 742 mmHg 80%
    07:00 +27°C° 0 mm 1 mps 742 mmHg 79%
    08:00 +29°C° 0.1 mm 1 mps 742 mmHg 74%
    09:00 +30°C° 0.1 mm 1 mps 743 mmHg 70%
    10:00 +32°C° 0.1 mm 2 mps 743 mmHg 65%
    11:00 +32°C° 0.6 mm 2 mps 742 mmHg 64%
    12:00 +34°C° 0.6 mm 2 mps 741 mmHg 64%
    13:00 +34°C° 0.6 mm 2 mps 740 mmHg 63%
    14:00 +32°C° 0.2 mm 2 mps 740 mmHg 65%
    15:00 +32°C° 0.2 mm 1 mps 739 mmHg 66%
    16:00 +32°C° 0.2 mm 1 mps 739 mmHg 68%
    17:00 +30°C° 0.1 mm 1 mps 740 mmHg 73%
    18:00 +28°C° 0.1 mm 1 mps 740 mmHg 78%
    19:00 +27°C° 0.1 mm 1 mps 741 mmHg 83%
    20:00 +26°C° 0 mm 1 mps 741 mmHg 82%
    21:00 +26°C° 0 mm 1 mps 742 mmHg 80%
    22:00 +26°C° 0 mm 1 mps 742 mmHg 78%
    23:00 +26°C° 0 mm 1 mps 742 mmHg 76%

    Tomorrow, 21 November, Wednesday

    Time Temperature Precipitation Wind Pressure Humidity
    00:00 +25°C° 0 mm 1 mps 742 mmHg 73%
    01:00 +25°C° 0 mm 1 mps 742 mmHg 71%
    02:00 +25°C° 0.1 mm 1 mps 742 mmHg 72%
    03:00 +25°C° 0.1 mm 1 mps 742 mmHg 74%
    04:00 +25°C° 0.1 mm 1 mps 741 mmHg 75%
    05:00 +25°C° 0 mm 1 mps 742 mmHg 75%
    06:00 +26°C° 0 mm 1 mps 743 mmHg 75%
    07:00 +27°C° 0 mm 1 mps 743 mmHg 75%
    08:00 +29°C° 0.1 mm 1 mps 743 mmHg 72%
    09:00 +30°C° 0.1 mm 1 mps 744 mmHg 69%
    10:00 +32°C° 0.1 mm 2 mps 744 mmHg 65%
    11:00 +32°C° 0.7 mm 2 mps 743 mmHg 66%
    12:00 +32°C° 0.7 mm 2 mps 742 mmHg 67%
    13:00 +32°C° 0.7 mm 2 mps 741 mmHg 68%
    14:00 +32°C° 0.3 mm 1 mps 740 mmHg 70%
    15:00 +31°C° 0.3 mm 1 mps 740 mmHg 72%
    16:00 +31°C° 0.3 mm 1 mps 739 mmHg 75%
    17:00 +30°C° 0.1 mm 1 mps 740 mmHg 79%
    18:00 +28°C° 0.1 mm 1 mps 740 mmHg 84%
    19:00 +25°C° 0.1 mm 0 mps 741 mmHg 88%
    20:00 +25°C° 0 mm 0 mps 741 mmHg 88%
    21:00 +27°C° 0 mm 1 mps 741 mmHg 88%
    22:00 +26°C° 0 mm 1 mps 742 mmHg 88%
    23:00 +26°C° 0.1 mm 1 mps 741 mmHg 88%

    Day after tomorrow, 22 November, Thursday

    Time Temperature Precipitation Wind Pressure Humidity
    00:00 +26°C° 0.1 mm 1 mps 741 mmHg 88%
    01:00 +26°C° 0.1 mm 1 mps 741 mmHg 87%
    02:00 +25°C° 0.3 mm 1 mps 741 mmHg 87%
    03:00 +25°C° 0.3 mm 1 mps 741 mmHg 87%
    04:00 +25°C° 0.3 mm 1 mps 741 mmHg 87%
    05:00 +25°C° 0.2 mm 1 mps 741 mmHg 87%
    06:00 +26°C° 0.2 mm 1 mps 742 mmHg 86%
    07:00 +26°C° 0.2 mm 1 mps 743 mmHg 85%
    08:00 +28°C° 0.1 mm 1 mps 743 mmHg 79%
    09:00 +29°C° 0.1 mm 2 mps 743 mmHg 73%
    10:00 +30°C° 0.1 mm 2 mps 743 mmHg 68%
    11:00 +31°C° 0.1 mm 2 mps 742 mmHg 65%
    12:00 +32°C° 0.1 mm 2 mps 741 mmHg 63%
    13:00 +32°C° 0.1 mm 2 mps 740 mmHg 60%
    14:00 +32°C° 0.1 mm 2 mps 740 mmHg 64%
    15:00 +31°C° 0.1 mm 1 mps 739 mmHg 67%
    16:00 +31°C° 0.1 mm 1 mps 739 mmHg 70%
    17:00 +29°C° 0 mm 1 mps 739 mmHg 76%
    18:00 +28°C° 0 mm 1 mps 740 mmHg 81%
    19:00 +24°C° 0 mm 0 mps 740 mmHg 86%
    20:00 +24°C° 0 mm 0 mps 741 mmHg 85%
    21:00 +26°C° 0 mm 1 mps 741 mmHg 85%
    22:00 +25°C° 0 mm 1 mps 741 mmHg 84%
    23:00 +25°C° 0 mm 1 mps 741 mmHg 84%

    23 November, Friday

    Time Temperature Precipitation Wind Pressure Humidity
    00:00 +25°C° 0 mm 1 mps 741 mmHg 83%
    01:00 +25°C° 0 mm 1 mps 740 mmHg 83%
    02:00 +24°C° 0 mm 1 mps 740 mmHg 82%
    03:00 +24°C° 0 mm 1 mps 740 mmHg 82%
    04:00 +24°C° 0 mm 1 mps 740 mmHg 81%
    05:00 +25°C° 0 mm 1 mps 741 mmHg 79%
    06:00 +26°C° 0 mm 1 mps 741 mmHg 77%
    07:00 +24°C° 0 mm 0 mps 742 mmHg 75%
    08:00 +28°C° 0 mm 1 mps 742 mmHg 70%
    09:00 +30°C° 0 mm 1 mps 742 mmHg 65%
    10:00 +31°C° 0 mm 1 mps 742 mmHg 60%
    11:00 +32°C° 0.1 mm 1 mps 741 mmHg 60%
    12:00 +32°C° 0.1 mm 1 mps 740 mmHg 60%
    13:00 +32°C° 0.1 mm 1 mps 740 mmHg 59%
    14:00 +32°C° 0 mm 1 mps 739 mmHg 63%
    15:00 +31°C° 0 mm 1 mps 739 mmHg 66%
    16:00 +31°C° 0 mm 1 mps 738 mmHg 69%
    17:00 +29°C° 0 mm 1 mps 739 mmHg 74%
    18:00 +28°C° 0 mm 1 mps 739 mmHg 80%
    19:00 +26°C° 0 mm 1 mps 739 mmHg 85%
    20:00 +26°C° 0 mm 1 mps 740 mmHg 85%
    21:00 +26°C° 0 mm 1 mps 740 mmHg 85%
    22:00 +26°C° 0 mm 1 mps 740 mmHg 85%
    23:00 +25°C° 0 mm 1 mps 740 mmHg 85%

    24 November, Saturday

    Time Temperature Precipitation Wind Pressure Humidity
    00:00 +25°C° 0 mm 1 mps 740 mmHg 85%
    01:00 +25°C° 0 mm 1 mps 740 mmHg 84%
    02:00 +25°C° 0 mm 1 mps 740 mmHg 84%
    03:00 +24°C° 0 mm 1 mps 740 mmHg 83%
    04:00 +24°C° 0 mm 1 mps 740 mmHg 82%
    05:00 +25°C° 0 mm 1 mps 740 mmHg 79%
    06:00 +26°C° 0 mm 1 mps 741 mmHg 76%
    07:00 +27°C° 0 mm 1 mps 742 mmHg 73%
    08:00 +29°C° 0 mm 1 mps 742 mmHg 67%
    09:00 +31°C° 0 mm 1 mps 742 mmHg 61%
    10:00 +34°C° 0 mm 2 mps 742 mmHg 55%
    11:00 +34°C° 0 mm 2 mps 741 mmHg 55%
    12:00 +35°C° 0 mm 2 mps 740 mmHg 54%
    13:00 +35°C° 0 mm 2 mps 739 mmHg 53%
    14:00 +33°C° 0 mm 1 mps 739 mmHg 57%
    15:00 +33°C° 0 mm 1 mps 738 mmHg 61%
    16:00 +32°C° 0 mm 1 mps 738 mmHg 65%
    17:00 +30°C° 0 mm 1 mps 738 mmHg 71%
    18:00 +29°C° 0 mm 1 mps 739 mmHg 77%
    19:00 +27°C° 0 mm 1 mps 740 mmHg 83%
    20:00 +27°C° 0 mm 1 mps 740 mmHg 83%
    21:00 +26°C° 0 mm 1 mps 740 mmHg 84%
    22:00 +26°C° 0 mm 1 mps 741 mmHg 84%
    23:00 +26°C° 0 mm 1 mps 740 mmHg 83%

    25 November, Sunday

    Time Temperature Precipitation Wind Pressure Humidity
    00:00 +25°C° 0 mm 1 mps 740 mmHg 83%
    01:00 +25°C° 0 mm 1 mps 740 mmHg 82%
    02:00 +25°C° 0 mm 1 mps 740 mmHg 80%
    03:00 +25°C° 0 mm 1 mps 740 mmHg 78%
    04:00 +25°C° 0 mm 1 mps 740 mmHg 75%
    05:00 +26°C° 0 mm 1 mps 741 mmHg 74%
    06:00 +26°C° 0 mm 1 mps 741 mmHg 73%
    07:00 +27°C° 0 mm 1 mps 742 mmHg 71%
    08:00 +29°C° 0 mm 1 mps 742 mmHg 67%
    09:00 +30°C° 0 mm 1 mps 742 mmHg 62%
    10:00 +32°C° 0 mm 1 mps 742 mmHg 57%
    11:00 +33°C° 0 mm 1 mps 742 mmHg 55%
    12:00 +33°C° 0 mm 1 mps 741 mmHg 53%
    13:00 +35°C° 0 mm 2 mps 740 mmHg 51%
    14:00 +33°C° 0 mm 1 mps 739 mmHg 55%
    15:00 +33°C° 0 mm 1 mps 739 mmHg 58%
    16:00 +32°C° 0 mm 1 mps 739 mmHg 61%
    17:00 +30°C° 0 mm 1 mps 739 mmHg 67%
    18:00 +29°C° 0 mm 1 mps 739 mmHg 72%
    19:00 +27°C° 0 mm 1 mps 740 mmHg 78%
    20:00 +27°C° 0 mm 1 mps 740 mmHg 77%
    21:00 +26°C° 0 mm 1 mps 741 mmHg 76%
    22:00 +26°C° 0 mm 1 mps 741 mmHg 75%
    23:00 +26°C° 0.1 mm 1 mps 741 mmHg 74%
    Show more